When you browse on this site, cookies collect data to enhance your experience and personalize the content and advertising you see.
Visit our Privacy Policy to learn more. By continuing to use the site, you agree to this use of cookies and data.
  • In Hungary
  • List of Countries
  • For 7 days
  • Water Temperature
  • Weather Map
  • News
  • Weather Widgets
  • user-avatar
    Login

    Hourly Weather Namadzi

    Today, 10 December, Tuesday

    Time Temperature Precipitation Wind Pressure Humidity
    00:00 +23°C° 0 mm 1 mps 668 mmHg 81%
    01:00 +23°C° 0 mm 1 mps 668 mmHg 82%
    02:00 +22°C° 0 mm 1 mps 668 mmHg 83%
    03:00 +22°C° 0 mm 1 mps 668 mmHg 85%
    04:00 +22°C° 0 mm 1 mps 668 mmHg 87%
    05:00 +21°C° 0 mm 1 mps 668 mmHg 89%
    06:00 +23°C° 0.1 mm 1 mps 669 mmHg 82%
    07:00 +25°C° 0.1 mm 2 mps 670 mmHg 75%
    08:00 +27°C° 0 mm 2 mps 671 mmHg 67%
    09:00 +28°C° 0.4 mm 2 mps 671 mmHg 61%
    10:00 +29°C° 0.4 mm 2 mps 671 mmHg 55%
    11:00 +31°C° 0.4 mm 2 mps 670 mmHg 50%
    12:00 +31°C° 0.3 mm 2 mps 670 mmHg 47%
    13:00 +32°C° 0.3 mm 2 mps 669 mmHg 44%
    14:00 +31°C° 0 mm 2 mps 669 mmHg 44%
    15:00 +31°C° 0.2 mm 2 mps 669 mmHg 47%
    16:00 +30°C° 0.2 mm 1 mps 669 mmHg 50%
    17:00 +30°C° 0.2 mm 1 mps 668 mmHg 53%
    18:00 +28°C° 1.3 mm 1 mps 669 mmHg 60%
    19:00 +26°C° 1.3 mm 1 mps 669 mmHg 67%
    20:00 +25°C° 1.3 mm 1 mps 669 mmHg 74%
    21:00 +24°C° 0.7 mm 1 mps 669 mmHg 78%
    22:00 +24°C° 0.7 mm 1 mps 669 mmHg 81%
    23:00 +23°C° 0.7 mm 1 mps 669 mmHg 85%

    Tomorrow, 11 December, Wednesday

    Time Temperature Precipitation Wind Pressure Humidity
    00:00 +23°C° 0.5 mm 1 mps 669 mmHg 87%
    01:00 +22°C° 0.5 mm 1 mps 669 mmHg 89%
    02:00 +22°C° 0.5 mm 1 mps 668 mmHg 91%
    03:00 +20°C° 0.7 mm 0 mps 668 mmHg 92%
    04:00 +20°C° 0.7 mm 0 mps 668 mmHg 93%
    05:00 +19°C° 0.7 mm 0 mps 668 mmHg 94%
    06:00 +23°C° 0.6 mm 1 mps 669 mmHg 87%
    07:00 +24°C° 0.6 mm 1 mps 670 mmHg 81%
    08:00 +26°C° 0.6 mm 1 mps 670 mmHg 74%
    09:00 +27°C° 0.9 mm 2 mps 670 mmHg 68%
    10:00 +28°C° 0.9 mm 2 mps 670 mmHg 63%
    11:00 +30°C° 0.9 mm 2 mps 670 mmHg 57%
    12:00 +30°C° 1.7 mm 2 mps 669 mmHg 58%
    13:00 +29°C° 1.7 mm 2 mps 669 mmHg 59%
    14:00 +29°C° 1.7 mm 1 mps 668 mmHg 60%
    15:00 +28°C° 0.7 mm 1 mps 668 mmHg 64%
    16:00 +28°C° 0.7 mm 1 mps 668 mmHg 67%
    17:00 +27°C° 0.7 mm 2 mps 668 mmHg 71%
    18:00 +26°C° 0.1 mm 1 mps 668 mmHg 74%
    19:00 +25°C° 0.1 mm 1 mps 668 mmHg 77%
    20:00 +24°C° 0.1 mm 1 mps 669 mmHg 80%
    21:00 +24°C° 0.1 mm 1 mps 669 mmHg 81%
    22:00 +24°C° 0.1 mm 1 mps 669 mmHg 82%
    23:00 +24°C° 0.1 mm 1 mps 669 mmHg 83%

    Day after tomorrow, 12 December, Thursday

    Time Temperature Precipitation Wind Pressure Humidity
    00:00 +23°C° 0.1 mm 1 mps 669 mmHg 84%
    01:00 +23°C° 0.1 mm 1 mps 669 mmHg 86%
    02:00 +23°C° 0.1 mm 1 mps 668 mmHg 88%
    03:00 +22°C° 0.1 mm 1 mps 668 mmHg 89%
    04:00 +22°C° 0.1 mm 1 mps 668 mmHg 90%
    05:00 +22°C° 0.1 mm 1 mps 669 mmHg 91%
    06:00 +23°C° 0 mm 1 mps 669 mmHg 85%
    07:00 +25°C° 0 mm 1 mps 670 mmHg 78%
    08:00 +26°C° 0 mm 2 mps 671 mmHg 72%
    09:00 +28°C° 0.3 mm 2 mps 670 mmHg 66%
    10:00 +29°C° 0.3 mm 2 mps 670 mmHg 60%
    11:00 +31°C° 0.3 mm 3 mps 670 mmHg 54%
    12:00 +30°C° 1.3 mm 2 mps 670 mmHg 55%
    13:00 +30°C° 1.3 mm 1 mps 669 mmHg 57%
    14:00 +30°C° 1.3 mm 1 mps 668 mmHg 58%
    15:00 +27°C° 3.4 mm 1 mps 668 mmHg 67%
    16:00 +25°C° 3.4 mm 2 mps 667 mmHg 76%
    17:00 +23°C° 3.4 mm 2 mps 667 mmHg 85%
    18:00 +23°C° 2.1 mm 2 mps 668 mmHg 86%
    19:00 +22°C° 2.1 mm 1 mps 668 mmHg 86%
    20:00 +20°C° 2.1 mm 0 mps 669 mmHg 86%
    21:00 +22°C° 1 mm 1 mps 670 mmHg 88%
    22:00 +21°C° 1 mm 1 mps 670 mmHg 89%
    23:00 +21°C° 1 mm 1 mps 670 mmHg 91%

    13 December, Friday

    Time Temperature Precipitation Wind Pressure Humidity
    00:00 +21°C° 0.2 mm 1 mps 670 mmHg 91%
    01:00 +21°C° 0.2 mm 1 mps 670 mmHg 92%
    02:00 +21°C° 0.2 mm 1 mps 669 mmHg 93%
    03:00 +21°C° 0 mm 1 mps 670 mmHg 92%
    04:00 +21°C° 0 mm 1 mps 670 mmHg 91%
    05:00 +21°C° 0 mm 1 mps 670 mmHg 91%
    06:00 +22°C° 0.1 mm 1 mps 670 mmHg 88%
    07:00 +23°C° 0.1 mm 1 mps 671 mmHg 84%
    08:00 +23°C° 0.1 mm 1 mps 671 mmHg 81%
    09:00 +24°C° 0 mm 1 mps 671 mmHg 77%
    10:00 +25°C° 0 mm 1 mps 671 mmHg 72%
    11:00 +27°C° 0 mm 1 mps 671 mmHg 67%
    12:00 +27°C° 0.3 mm 1 mps 671 mmHg 65%
    13:00 +28°C° 0.3 mm 1 mps 670 mmHg 62%
    14:00 +28°C° 0.3 mm 1 mps 670 mmHg 59%
    15:00 +28°C° 0.4 mm 1 mps 670 mmHg 63%
    16:00 +27°C° 0.4 mm 1 mps 669 mmHg 66%
    17:00 +26°C° 0.4 mm 1 mps 669 mmHg 70%
    18:00 +25°C° 0.3 mm 1 mps 670 mmHg 74%
    19:00 +24°C° 0.3 mm 1 mps 670 mmHg 77%
    20:00 +23°C° 0.3 mm 1 mps 670 mmHg 81%
    21:00 +23°C° 0.4 mm 1 mps 670 mmHg 82%
    22:00 +22°C° 0.4 mm 1 mps 670 mmHg 84%
    23:00 +20°C° 0.4 mm 0 mps 671 mmHg 86%

    14 December, Saturday

    Time Temperature Precipitation Wind Pressure Humidity
    00:00 +20°C° 0.5 mm 0 mps 670 mmHg 88%
    01:00 +20°C° 0.5 mm 0 mps 670 mmHg 89%
    02:00 +21°C° 0.5 mm 1 mps 670 mmHg 90%
    03:00 +21°C° 1.2 mm 1 mps 670 mmHg 90%
    04:00 +21°C° 1.2 mm 1 mps 670 mmHg 90%
    05:00 +21°C° 1.2 mm 1 mps 670 mmHg 90%
    06:00 +22°C° 0.4 mm 1 mps 671 mmHg 87%
    07:00 +22°C° 0.4 mm 1 mps 671 mmHg 84%
    08:00 +23°C° 0.4 mm 1 mps 672 mmHg 82%
    09:00 +25°C° 0.1 mm 1 mps 672 mmHg 75%
    10:00 +26°C° 0.1 mm 1 mps 672 mmHg 68%
    11:00 +28°C° 0.1 mm 1 mps 672 mmHg 61%
    12:00 +28°C° 0.1 mm 1 mps 671 mmHg 57%
    13:00 +29°C° 0.1 mm 2 mps 671 mmHg 54%
    14:00 +30°C° 0.1 mm 2 mps 670 mmHg 50%
    15:00 +29°C° 0.1 mm 2 mps 670 mmHg 55%
    16:00 +28°C° 0.1 mm 2 mps 670 mmHg 59%
    17:00 +27°C° 0.1 mm 2 mps 669 mmHg 63%
    18:00 +26°C° 0.5 mm 1 mps 669 mmHg 68%
    19:00 +24°C° 0.5 mm 1 mps 670 mmHg 73%
    20:00 +23°C° 0.5 mm 1 mps 670 mmHg 78%
    21:00 +23°C° 0.6 mm 1 mps 670 mmHg 80%
    22:00 +22°C° 0.6 mm 1 mps 670 mmHg 83%
    23:00 +22°C° 0.6 mm 1 mps 670 mmHg 85%

    15 December, Sunday

    Time Temperature Precipitation Wind Pressure Humidity
    00:00 +22°C° 0.5 mm 1 mps 670 mmHg 86%
    01:00 +22°C° 0.5 mm 1 mps 669 mmHg 87%
    02:00 +22°C° 0.5 mm 1 mps 669 mmHg 88%
    03:00 +22°C° 1.4 mm 1 mps 669 mmHg 89%
    04:00 +19°C° 1.4 mm 0 mps 669 mmHg 89%
    05:00 +19°C° 1.4 mm 0 mps 670 mmHg 90%
    06:00 +22°C° 1.1 mm 1 mps 670 mmHg 88%
    07:00 +23°C° 1.1 mm 1 mps 670 mmHg 86%
    08:00 +23°C° 1.1 mm 1 mps 671 mmHg 84%
    09:00 +24°C° 1.3 mm 1 mps 671 mmHg 79%
    10:00 +26°C° 1.3 mm 1 mps 671 mmHg 75%
    11:00 +27°C° 1.3 mm 1 mps 671 mmHg 70%
    12:00 +27°C° 1.7 mm 1 mps 670 mmHg 70%
    13:00 +27°C° 1.7 mm 1 mps 669 mmHg 70%
    14:00 +27°C° 1.7 mm 1 mps 669 mmHg 70%
    15:00 +26°C° 1.4 mm 1 mps 669 mmHg 74%
    16:00 +25°C° 1.4 mm 1 mps 668 mmHg 78%
    17:00 +24°C° 1.4 mm 2 mps 668 mmHg 82%
    18:00 +23°C° 2.5 mm 2 mps 668 mmHg 85%
    19:00 +21°C° 2.5 mm 2 mps 669 mmHg 88%
    20:00 +20°C° 2.5 mm 2 mps 669 mmHg 90%
    21:00 +21°C° 0 mm 1 mps 669 mmHg 88%
    22:00 +22°C° 0 mm 1 mps 669 mmHg 85%
    23:00 +20°C° 0 mm 0 mps 669 mmHg 82%
    Show more